FW7783 Weather Reports


time (UTC)temp
F
wind
direction
speed
knots
gust
knots
rain 1hr
in
rain 24hr
in
rain mn
in
humidity
%
barometer
mb
20260505025036 55 0 0.0 1.7 0.00 0.00 0.00 76 1003.3
20260505024551 55 0 0.0 1.7 0.00 0.00 0.00 76 1003.3
20260505024035 55 200 0.0 1.7 0.00 0.00 0.00 75 1003.4
20260505023535 55 200 0.0 1.7 0.00 0.00 0.00 75 1003.4
20260505023041 55 0 0.0 1.7 0.00 0.00 0.00 75 1003.4
20260505022535 55 0 0.0 1.7 0.00 0.00 0.00 74 1003.4
20260505022035 55 0 0.0 0.9 0.00 0.00 0.00 74 1003.5
20260505021549 55 0 0.0 0.9 0.00 0.00 0.00 73 1003.6
20260505021034 55 0 0.0 0.0 0.00 0.00 0.00 76 1003.7
20260505020535 55 0 0.0 0.0 0.00 0.00 0.00 75 1003.7
20260505020053 56 0 0.0 0.0 0.00 0.00 0.00 73 1003.6
20260505015535 56 0 0.0 0.9 0.00 0.00 0.00 75 1003.6
20260505015036 56 0 0.0 0.9 0.00 0.00 0.00 76 1003.6
20260505014545 57 0 0.0 0.9 0.00 0.00 0.00 76 1003.5
20260505014035 57 0 0.0 0.0 0.00 0.00 0.00 74 1003.5
20260505013538 58 0 0.0 0.0 0.00 0.00 0.00 73 1003.5
20260505013043 58 0 0.0 0.0 0.00 0.00 0.00 73 1003.4
20260505012535 58 0 0.0 0.0 0.00 0.00 0.00 73 1003.4
20260505012035 59 0 0.0 0.0 0.00 0.00 0.00 72 1003.4
20260505011540 59 0 0.0 0.0 0.00 0.00 0.00 72 1003.4
20260505011034 59 0 0.0 0.0 0.00 0.00 0.00 69 1003.4
20260505010537 60 0 0.0 0.0 0.00 0.00 0.00 68 1003.4
20260505005535 61 0 0.0 1.7 0.00 0.00 0.00 66 1003.4
20260505005038 61 0 0.0 1.7 0.00 0.00 0.00 67 1003.3
20260505004538 61 200 0.9 1.7 0.00 0.00 0.00 63 1003.2
20260505004036 62 0 0.0 0.9 0.00 0.00 0.00 62 1003.3
20260505003535 63 0 0.0 0.0 0.00 0.00 0.00 65 1003.3
20260505003050 63 0 0.0 0.0 0.00 0.00 0.00 61 1003.3
20260505002534 64 0 0.0 0.0 0.00 0.00 0.00 63 1003.3
20260505002035 64 0 0.0 0.0 0.00 0.00 0.00 60 1003.2
20260505001546 65 0 0.0 0.0 0.00 0.00 0.00 58 1003.3
20260505001035 66 0 0.0 0.0 0.00 0.00 0.00 59 1003.3
20260505000535 66 0 0.0 0.0 0.00 0.00 0.00 57 1003.3
20260505000052 67 0 0.0 0.0 0.00 0.00 0.00 57 1003.2
20260504235538 67 0 0.0 0.9 0.00 0.00 0.00 55 1003.3
20260504235035 68 0 0.0 0.9 0.00 0.00 0.00 51 1003.2
20260504234552 69 0 0.0 0.9 0.00 0.00 0.00 49 1003.2
20260504234034 69 0 0.0 1.7 0.00 0.00 0.00 51 1003.3
20260504233535 70 0 0.0 1.7 0.00 0.00 0.00 44 1003.1
20260504233053 71 0 0.0 1.7 0.00 0.00 0.00 38 1003.2
20260504232535 71 219 0.0 1.7 0.00 0.00 0.00 40 1003.1
20260504232035 72 0 0.0 2.6 0.00 0.00 0.00 37 1003.1
20260504231547 72 0 0.0 2.6 0.00 0.00 0.00 37 1003.1
20260504231034 73 219 0.9 3.5 0.00 0.00 0.00 34 1003.1
20260504230534 73 223 0.9 3.5 0.00 0.00 0.00 33 1003.1
20260504230107 73 221 0.9 6.1 0.00 0.00 0.00 34 1003.1
20260504225540 73 213 0.9 6.1 0.00 0.00 0.00 32 1003.0
20260504225036 73 210 2.6 6.1 0.00 0.00 0.00 32 1003.0
20260504224558 74 228 1.7 4.3 0.00 0.00 0.00 31 1003.0
20260504224036 74 196 1.7 5.2 0.00 0.00 0.00 32 1003.0
20260504223536 74 269 1.7 7.0 0.00 0.00 0.00 33 1003.0
20260504223051 74 256 1.7 7.0 0.00 0.00 0.00 31 1003.1
20260504222535 74 205 1.7 5.2 0.00 0.00 0.00 31 1003.1
20260504222034 74 210 1.7 5.2 0.00 0.00 0.00 32 1003.1
20260504221550 74 0 0.9 7.0 0.00 0.00 0.00 33 1003.1
20260504221035 74 257 2.6 7.8 0.00 0.00 0.00 32 1003.2
20260504220535 74 202 3.5 9.6 0.00 0.00 0.00 32 1003.3
20260504220057 74 248 3.5 10.4 0.00 0.00 0.00 31 1003.2
20260504215535 74 216 4.3 10.4 0.00 0.00 0.00 33 1003.2
20260504215035 74 267 2.6 10.4 0.00 0.00 0.00 33 1003.2
20260504214546 74 259 3.5 10.4 0.00 0.00 0.00 32 1003.3
20260504214035 74 227 2.6 7.0 0.00 0.00 0.00 33 1003.2
20260504213535 74 171 2.6 9.6 0.00 0.00 0.00 34 1003.5
20260504213047 74 227 4.3 9.6 0.00 0.00 0.00 32 1003.4
20260504212535 75 243 3.5 7.0 0.00 0.00 0.00 32 1003.6
20260504212035 75 284 2.6 6.1 0.00 0.00 0.00 34 1003.6
20260504211557 75 192 2.6 7.0 0.00 0.00 0.00 33 1003.6
20260504211035 75 201 1.7 10.4 0.00 0.00 0.00 34 1003.5
20260504210535 75 222 4.3 10.4 0.00 0.00 0.00 33 1003.6
20260504210056 75 242 2.6 9.6 0.00 0.00 0.00 34 1003.6
20260504205534 74 227 1.7 10.4 0.00 0.00 0.00 33 1003.6
20260504205034 74 319 4.3 10.4 0.00 0.00 0.00 32 1003.6
20260504204550 74 240 4.3 11.3 0.00 0.00 0.00 32 1003.6
20260504204034 74 231 4.3 11.3 0.00 0.00 0.00 34 1003.7
20260504203534 74 209 4.3 9.6 0.00 0.00 0.00 33 1003.7
20260504203044 74 190 4.3 9.6 0.00 0.00 0.00 35 1003.8
20260504202534 74 207 3.5 9.6 0.00 0.00 0.00 34 1003.8
20260504202034 74 245 2.6 10.4 0.00 0.00 0.00 34 1003.8
20260504201549 74 300 5.2 10.4 0.00 0.00 0.00 34 1003.9
20260504201033 74 230 5.2 9.6 0.00 0.00 0.00 33 1003.9
20260504200535 74 202 2.6 8.7 0.00 0.00 0.00 36 1004.0
20260504200057 73 203 4.3 8.7 0.00 0.00 0.00 36 1004.0
20260504195534 73 229 3.5 7.8 0.00 0.00 0.00 40 1004.3
20260504195034 73 220 3.5 10.4 0.00 0.00 0.00 39 1004.2
20260504194545 72 184 3.5 12.2 0.00 0.00 0.00 39 1004.4
20260504194034 73 186 3.5 12.2 0.00 0.00 0.00 40 1004.5
20260504193534 73 242 3.5 11.3 0.00 0.00 0.00 42 1004.5
20260504193045 73 217 5.2 11.3 0.00 0.00 0.00 38 1004.6
20260504192535 73 188 4.3 11.3 0.00 0.00 0.00 39 1004.6
20260504192034 73 169 3.5 8.7 0.00 0.00 0.00 39 1004.7
20260504191547 74 232 2.6 9.6 0.00 0.00 0.00 41 1004.6
20260504191034 73 182 2.6 9.6 0.00 0.00 0.00 42 1004.7
20260504190534 72 206 3.5 9.6 0.00 0.00 0.00 40 1004.8
20260504190042 72 286 3.5 8.7 0.00 0.00 0.00 42 1005.0
20260504185533 72 190 3.5 8.7 0.00 0.00 0.00 42 1005.1
20260504185033 72 229 4.3 9.6 0.00 0.00 0.00 41 1005.1
20260504184549 72 223 4.3 9.6 0.00 0.00 0.00 42 1005.1
20260504184037 72 231 4.3 11.3 0.00 0.00 0.00 43 1005.2
20260504183535 72 261 4.3 11.3 0.00 0.00 0.00 42 1005.3
20260504183038 72 178 3.5 11.3 0.00 0.00 0.00 41 1005.3
20260504182534 71 227 4.3 18.2 0.00 0.00 0.00 42 1005.3
20260504182034 71 257 7.0 18.2 0.00 0.00 0.00 44 1005.3
20260504181546 71 196 6.1 13.0 0.00 0.00 0.00 43 1005.4
20260504181035 71 207 5.2 12.2 0.00 0.00 0.00 42 1005.4
20260504180535 71 233 5.2 10.4 0.00 0.00 0.00 42 1005.3
20260504180044 71 248 2.6 10.4 0.00 0.00 0.00 45 1005.4
20260504175534 71 249 3.5 10.4 0.00 0.00 0.00 46 1005.4
20260504175034 70 198 4.3 10.4 0.00 0.00 0.00 45 1005.5
20260504174540 70 242 3.5 10.4 0.00 0.00 0.00 44 1005.5
20260504174035 70 241 3.5 10.4 0.00 0.00 0.00 45 1005.5
20260504173534 69 251 4.3 10.4 0.00 0.00 0.00 44 1005.6
20260504173039 70 214 4.3 11.3 0.00 0.00 0.00 44 1005.5
20260504172534 70 198 4.3 11.3 0.00 0.00 0.00 45 1005.7
20260504172034 69 275 4.3 10.4 0.00 0.00 0.00 46 1005.5
20260504171549 69 198 4.3 9.6 0.00 0.00 0.00 46 1005.7
20260504171035 68 284 4.3 9.6 0.00 0.00 0.00 46 1005.8
20260504170535 68 282 3.5 9.6 0.00 0.00 0.00 46 1005.8
20260504151035 64 198 1.7 7.8 0.00 0.00 0.00 50 1006.6
20260504150534 64 270 1.7 7.8 0.00 0.00 0.00 51 1006.6
20260504141034 62 202 3.5 7.8 0.00 0.00 0.00 52 1006.8
20260504140534 61 238 2.6 10.4 0.00 0.00 0.00 50 1006.8
20260504130536 57 232 1.7 7.0 0.00 0.00 0.00 54 1007.6
20260504120105 52 0 0.0 1.7 0.00 0.00 0.00 63 1007.8
20260504110534 53 0 0.9 5.2 0.00 0.00 0.00 57 1007.6
20260504100533 53 203 2.6 7.0 0.00 0.00 0.00 55 1007.4
20260504081554 52 194 1.7 7.0 0.00 0.00 0.00 57 1008.0
20260504081035 52 198 0.9 7.0 0.00 0.00 0.00 57 1008.0
20260504080534 52 216 1.7 4.3 0.00 0.00 0.00 57 1008.0
20260504050535 55 229 3.5 7.8 0.00 0.00 0.00 54 1009.0
20260504045534 55 221 2.6 7.0 0.00 0.00 0.00 55 1009.0
20260504045034 55 245 2.6 6.1 0.00 0.00 0.00 55 1009.0
20260504044544 54 209 1.7 5.2 0.00 0.00 0.00 56 1009.1
20260504044034 54 209 1.7 5.2 0.00 0.00 0.00 57 1009.1
20260504043534 54 217 1.7 5.2 0.00 0.00 0.00 58 1009.0
20260504043105 54 238 1.7 3.5 0.00 0.00 0.00 58 1009.1
20260504042534 54 221 0.0 2.6 0.00 0.00 0.00 60 1009.1
20260504042034 53 221 0.0 4.3 0.00 0.00 0.00 60 1009.2
20260504041545 53 0 0.9 4.3 0.00 0.00 0.00 61 1009.1
20260504041034 53 205 1.7 3.5 0.00 0.00 0.00 62 1009.1
20260504040539 52 236 0.9 7.0 0.00 0.00 0.00 63 1009.1
20260504040048 51 248 0.9 7.0 0.00 0.00 0.00 67 1009.1
20260504035535 50 216 0.9 7.0 0.00 0.00 0.00 72 1009.1
20260504035035 49 0 0.0 0.0 0.00 0.00 0.00 78 1009.0
20260504034546 49 0 0.0 0.0 0.00 0.00 0.00 81 1009.1
20260504034034 49 0 0.0 0.0 0.00 0.00 0.00 84 1009.0
20260504033534 49 0 0.0 0.0 0.00 0.00 0.00 86 1009.0
20260504033045 49 0 0.0 0.0 0.00 0.00 0.00 86 1009.1
20260504032534 49 0 0.0 0.0 0.00 0.00 0.00 86 1009.1
20260504032034 49 0 0.0 0.0 0.00 0.00 0.00 85 1009.2
20260504031551 49 0 0.0 0.0 0.00 0.00 0.00 84 1009.3
20260504031034 49 0 0.0 0.0 0.00 0.00 0.00 83 1009.2
20260504030534 49 0 0.0 0.0 0.00 0.00 0.00 83 1009.3
20260504030100 49 0 0.0 0.0 0.00 0.00 0.00 83 1009.3
20260504025534 49 0 0.0 0.9 0.00 0.00 0.00 84 1009.4